Weather History for KP60 - March, 2014

Change the Weather History Date:

Monday, March 31, 2014

  Actual Average Record
Temperature  
Mean Temperature 18 °F 27 °F  
Max Temperature 32 °F 41 °F 55 °F (2004)
Min Temperature 4 °F 14 °F -7 °F (2005)
Degree Days  
Heating Degree Days 47 38  
Month to date heating degree days 1373 1302  
Since 1 July heating degree days 9426 9239  
Cooling Degree Days 0 0  
Month to date cooling degree days 0 0  
Year to date cooling degree days 0 0  
Moisture  
Dew Point 13 °F    
Average Humidity 77    
Maximum Humidity 96    
Minimum Humidity 58    
Precipitation  
Precipitation 0.00 in 0.05 in 0.33 in (2009)
Month to date precipitation 4.58 1.21  
Year to date precipitation 9.66 4.73  
Sea Level Pressure  
Sea Level Pressure 30.03 in    
Wind  
Wind Speed 2 mph (WNW)    
Max Wind Speed 12 mph    
Max Gust Speed 20 mph    
T = Trace of Precipitation, MM = Missing Value Source: NWS Daily Summary

Daily Weather History Graph

Daily Weather History Graph

Search for Another Location

Airport or City:

Trip Planner

Search our weather history database for the weather conditions in past years. The results will help you decide how hot, cold, wet, or windy it might be!

Date:

Astronomy

Mar. 31, 2014 Rise Set
Actual Time 7:04 AM MDT 7:47 PM MDT
Civil Twilight 6:34 AM MDT 8:17 PM MDT
Nautical Twilight 6:00 AM MDT 8:52 PM MDT
Astronomical Twilight 5:23 AM MDT 9:28 PM MDT
Moon 7:27 AM MDT (3/31) 9:14 PM MDT (3/31)
Length of Visible Light 13h 42m
Length of Day
12h 43m
New Moon, 1% of the Moon is Illuminated
Mar 31
New Moon
Apr 7
First Quarter
Apr 15
Full
Apr 22
Last Quarter
Apr 29
New

Hourly Weather History & Observations

Time (MDT) Temp. Windchill Dew Point Humidity Pressure Visibility Wind Dir Wind Speed Gust Speed Precip Events Conditions
12:56 AM 21.9 °F 14.5 °F 17.1 °F 82% 29.88 in - Variable 5.8 mph - N/A   Unknown
1:56 AM 21.0 °F 14.6 °F 16.0 °F 81% 29.92 in - Variable 4.6 mph - N/A   Unknown
2:56 AM 16.0 °F - 12.9 °F 88% 29.97 in - Calm Calm - N/A   Unknown
3:56 AM 12.0 °F - 10.0 °F 92% 30.00 in - Calm Calm - N/A   Unknown
4:56 AM 7.0 °F - 5.0 °F 92% 30.05 in - Calm Calm - N/A   Unknown
5:56 AM 6.1 °F - 3.9 °F 91% 30.09 in - Calm Calm - N/A   Unknown
6:56 AM 6.1 °F - 3.9 °F 91% 30.11 in - Calm Calm - N/A   Unknown
7:56 AM 10.0 °F - 8.1 °F 92% 30.10 in - Calm Calm - N/A   Unknown
8:56 AM 14.0 °F - 12.0 °F 92% 30.10 in - Calm Calm - N/A   Unknown
9:56 AM 17.1 °F - 14.0 °F 88% 30.09 in - Calm Calm - 0.01 in   Unknown
10:56 AM 19.0 °F - 15.1 °F 85% 30.08 in - Calm Calm - N/A   Unknown
11:56 AM 21.9 °F 17.2 °F 18.0 °F 85% 30.05 in - East 3.5 mph - 0.01 in   Unknown
12:56 PM 25.0 °F 20.7 °F 19.9 °F 81% 30.02 in - Variable 3.5 mph - 0.01 in   Unknown
1:56 PM 28.0 °F - 17.1 °F 63% 29.99 in - Calm Calm - N/A   Unknown
2:56 PM 28.9 °F 19.2 °F 16.0 °F 58% 30.00 in - West 11.5 mph 20.7 mph N/A   Unknown
3:56 PM 28.9 °F 22.8 °F 16.0 °F 58% 30.01 in - Variable 5.8 mph - N/A   Unknown
4:56 PM 28.9 °F 23.9 °F 15.1 °F 56% 30.03 in - WSW 4.6 mph - N/A   Unknown
5:56 PM 27.0 °F - 15.1 °F 61% 30.04 in - Calm Calm - N/A   Unknown
6:56 PM 26.1 °F - 17.1 °F 69% 30.05 in - Calm Calm - N/A   Unknown
7:56 PM 21.0 °F - 15.1 °F 78% 30.04 in - Calm Calm - N/A   Unknown
8:56 PM 15.1 °F 9.4 °F 12.0 °F 88% 30.06 in - NNW 3.5 mph - N/A   Unknown
9:56 PM 12.9 °F - 10.0 °F 88% 30.06 in - Calm Calm - N/A   Unknown
11:56 PM 6.1 °F - 3.0 °F 87% 30.04 in - Calm Calm - N/A   Unknown